927  
SXUS52 KCHS 220226  
OSOCHS  
 
MARINE OBSERVATIONS  
NATIONAL WEATHER SERVICE CHARLESTON SC  
1000 PM EDT TUE MAY 21 2019  
   
..DOWNTOWN CHARLESTON AND HARBOR
 
 
 
CITY SKY/WX TMP DP RH WIND PRES REMARKS  
WATERFRONT PRK N/A 79 75 87 VRB3 29.81R  
   
..LAKE MOULTRIE
 
 
 
CITY SKY/WX TMP DP RH WIND PRES REMARKS  
PINOPOLIS N/A 81 72 74 VRB3 29.89R  
   
..LAKE AND SUPPLEMENTAL COASTAL OBSERVATIONS
 
 
 
STATION/POSITION TIME TEMP WIND PRES WAVE SWELL  
AIR SEA DIR/SP/G HT/PER HT/PER/DIR  
(UTC) (F) (DEG/KT/KT) (MB) (FT/S) (FT/S/D)  
FORT PULASKI 0154 79 79 190/ 5/ 8 1015.3R  
SAPELO ISLAND 0200 78 170/ 9 1015.0  
WINYAH BAY 0145 78 210/ 5 1014.0S  
LAKE MURRAY 0150 80 CALM 1013.9R  
ACE BASIN NERRS 0145 78 150/ 1 1015.0R  
 
   
..C-MAN AND BUOY OBSERVATIONS
 
 
 
STATION/POSITION TIME TEMP WIND PRES WAVE SWELL  
AIR SEA DIR/SP/G HT/PER HT/PER/DIR  
(UTC) (F) (DEG/KT/KT) (MB) (FT/S) (FT/S/D)  
BUOY 41004 0210 77 190/ 6/ 8 1015.9  
BUOY 41008 0150 78 78 180/ 12/ 14 1014.4R 2/ 3 2/120/ 6  
FOLLY BEACH CMAN 0200 77 190/ 9/ 10 1015.8R  
PRITCHARDS ISLAN NOT AVBL  
CAPERS NS BUOY 0208 77 77 210/ 8/ 12 1015.1R  
FRIPP NS BUOY NOT AVBL  
5E ST. MARYS GA 0200 79 N/A 2/ 3  
 
 
STATION/POSITION TIME TEMP WIND PRES WAVE SWELL  
AIR SEA DIR/SP/G HT/PER HT/PER/DIR  
(UTC) (F) (DEG/KT/KT) (MB) (FT/S) (FT/S/D)  
FRYING PAN BUOY 0210 77 210/ 4/ 6 1016.4  
BUOY 41025 NOT AVBL  
CAPE LOOKOUT NC 0200 71 60/ 21/ 23 1018.0R  
BUOY 41002 NOT AVBL  
BUOY 41010 0210 79 80 100/ 8/ 10 1017.2  
ST AUGUSTINE FL 0200 79 82 140/ 15/ 16 1015.4R  
 

 
 
 
CLICK HERE TO GO TO PREVIOUS BULLETINS.

The Nexlab SC Page
The Nexlab GA Page Main Text Page